Vorticity
9 10 13 15 16 15 12 10 8 5 6 9 7 11 12 10 12 12 10 7 6 5 4 4 4 5 5 4 7 6 4 4 1 1 1 6 6 5 6 3 4 5 9 7 5 8 4 6 3 -0 1 3 6 5 4 3 -1 -0 -0 -6 -4 -1 -4 -1 0 4 9 7 7 12 11 4 3 6 6 5 5 3 2 3 1 1 3 3 4 4 4 4 4 3 3 3 2 3 4 4 4
14 16 19 20 24 26 24 21 13 9 9 7 8 11 11 13 14 13 11 9 8 7 6 5 5 4 7 6 4 6 5 6 4 3 0 3 5 4 5 1 0 0 3 2 3 4 3 10 5 6 10 8 8 5 11 14 10 13 10 7 7 8 6 7 9 11 10 6 6 12 16 10 5 4 4 4 5 5 4 3 2 2 2 2 3 3 4 4 3 3 2 3 2 3 3 3 3
17 17 16 19 23 26 30 31 20 14 12 9 16 14 9 14 13 13 12 10 9 9 8 5 6 5 7 8 6 7 6 7 6 6 2 -0 4 5 4 -0 -1 -1 1 -1 -2 1 7 8 -4 9 20 12 11 2 4 13 15 16 12 9 7 9 11 9 7 6 8 9 9 9 10 11 9 6 5 4 3 5 4 3 2 3 3 3 3 2 3 2 1 1 1 3 3 4 4 3 4
15 11 11 18 24 28 33 38 28 17 14 12 17 15 11 10 9 15 13 9 9 9 11 8 6 6 6 9 8 6 6 8 7 7 5 2 -1 -1 0 1 1 2 6 5 2 -1 4 12 -9 -21 -15 -4 3 -4 -1 5 6 10 12 13 12 12 12 9 7 5 5 6 6 5 7 10 11 9 7 5 3 3 3 3 3 3 4 4 3 2 1 0 0 2 3 4 5 5 5 4 4
11 4 8 19 25 33 36 43 42 24 15 9 12 20 20 20 14 14 12 9 9 7 9 9 9 7 4 7 8 7 7 7 9 7 5 5 1 -1 1 5 7 6 5 4 9 6 -2 3 2 -11 -18 -7 2 -0 -2 -6 7 17 10 6 7 6 8 12 11 5 2 2 2 4 6 5 6 8 10 10 8 7 6 5 4 4 4 5 4 4 3 3 4 6 6 6 5 4 4 4 5
8 2 6 13 16 27 32 44 52 32 15 6 6 14 13 17 17 10 11 9 7 6 5 5 7 8 6 4 4 7 9 6 7 9 7 6 5 5 4 4 5 5 3 -1 4 6 3 1 3 4 -2 -2 -0 1 -3 -8 4 5 -11 -11 1 5 3 4 4 -1 -3 -1 1 2 4 4 3 3 4 6 8 8 8 6 5 5 5 5 6 6 6 7 8 8 7 6 6 5 4 4 5
11 5 5 6 7 16 24 40 55 40 22 13 4 6 4 4 12 10 9 9 8 8 8 9 5 4 5 8 7 2 4 5 5 5 6 6 4 4 6 5 1 2 4 2 6 4 6 9 5 3 2 3 2 1 3 0 -0 -6 -10 -4 4 7 8 10 8 5 4 7 9 9 8 8 6 4 5 5 6 6 7 7 6 7 7 8 9 9 9 9 8 7 7 6 6 6 4 4 5
16 9 6 4 7 13 18 29 48 43 25 20 12 10 13 6 7 13 12 10 11 9 5 9 12 10 3 1 10 7 2 3 5 6 3 4 5 4 4 5 2 3 4 -4 3 8 8 12 12 8 5 5 6 4 4 3 2 1 1 4 4 0 3 7 5 5 5 3 6 10 8 8 9 9 9 8 6 7 9 10 9 9 9 9 8 7 6 6 7 6 6 6 6 6 5 5 5
20 9 7 5 6 12 16 21 35 41 27 19 18 14 17 12 4 9 18 16 9 10 5 -2 1 13 12 -4 -0 6 5 3 1 4 3 2 3 4 1 2 3 1 7 5 3 6 6 7 7 9 7 4 4 4 4 1 0 -1 -2 4 9 8 3 -2 -1 2 3 4 6 8 5 3 5 6 6 7 6 4 5 7 7 8 8 8 7 7 5 5 6 7 6 5 6 6 6 5 5
16 4 4 7 7 10 15 18 24 33 31 21 18 16 15 15 6 0 13 22 13 10 11 5 -9 -7 9 3 2 5 2 7 5 2 2 0 1 6 6 6 8 1 2 7 4 5 7 5 1 0 2 2 2 3 4 3 2 1 1 3 5 4 -1 -4 -0 2 2 5 8 12 9 -2 -5 1 2 2 2 -2 -2 3 4 4 4 4 5 6 6 6 7 7 8 6 6 6 6 6 5
11 4 3 11 8 9 14 17 19 24 31 28 20 18 15 14 11 -1 -2 14 18 17 12 12 7 -3 2 -2 5 14 2 2 6 6 4 1 -0 4 10 10 8 5 3 1 1 6 7 8 6 3 1 1 4 5 5 3 3 3 6 9 5 1 4 9 7 5 3 -1 1 11 12 0 -5 -0 -1 -1 2 0 4 7 7 6 6 5 5 6 4 5 7 6 7 7 7 6 5 5 5
9 5 3 15 8 6 15 14 16 20 27 31 23 18 17 12 13 5 -5 -4 -1 20 23 9 11 8 7 -4 -7 12 11 3 2 5 7 8 5 -2 -0 3 2 4 4 3 1 -1 0 2 0 2 1 -2 -1 -0 3 1 1 4 6 8 6 7 14 14 6 3 3 2 6 3 -1 1 3 3 3 6 7 8 11 8 5 5 5 7 8 9 8 9 10 7 7 7 7 7 6 6 7
8 4 0 13 8 4 16 14 12 17 20 27 25 19 19 13 13 10 3 -4 -17 9 33 16 10 8 9 7 -5 1 9 8 5 5 5 6 9 3 -2 -2 -1 3 6 5 3 -0 0 1 -1 2 5 3 1 2 7 8 5 3 2 5 7 8 6 -0 -4 -1 3 8 10 0 -2 8 11 9 11 12 11 12 11 5 5 6 5 5 5 6 7 8 9 8 7 7 7 7 7 8 9
9 10 3 6 10 9 14 11 11 16 15 20 23 19 19 14 14 15 7 4 -12 -10 12 15 17 11 7 10 5 4 6 8 7 6 4 4 10 10 6 4 3 1 3 4 3 6 6 5 4 5 10 10 7 5 8 11 10 5 -1 -0 2 2 0 -1 -2 1 7 11 10 8 10 12 11 10 9 8 8 8 4 1 5 6 5 4 4 4 4 4 5 5 5 5 5 5 6 7 7
10 12 8 7 10 12 13 8 8 16 16 17 20 16 18 15 15 20 12 7 -0 -12 -7 6 16 13 9 8 7 9 9 11 9 8 9 8 10 12 5 5 17 17 12 12 8 9 10 8 5 5 9 9 5 6 9 11 13 9 3 1 -1 -4 -1 5 5 5 10 13 12 9 7 7 8 8 4 2 3 2 1 2 3 3 5 5 5 6 5 6 6 6 6 5 5 5 5 5 5
6 9 9 10 10 9 14 11 5 14 19 17 19 18 12 13 15 19 17 11 8 5 1 4 11 14 13 10 9 11 12 14 10 6 8 7 4 7 5 -2 10 19 15 12 5 7 13 7 4 9 13 11 10 14 15 12 10 8 6 4 4 3 7 13 12 11 10 8 4 1 2 4 5 5 4 4 3 2 2 2 3 3 4 4 4 5 6 7 7 7 7 7 7 6 5 4 4
3 5 5 9 12 7 10 10 4 10 19 18 20 22 13 11 15 16 19 15 10 13 13 8 8 10 10 9 9 11 9 10 11 4 -1 7 11 6 7 1 -3 -2 -7 -12 -12 -0 9 4 3 6 6 6 6 7 5 3 4 8 9 6 7 7 10 12 7 5 5 2 -0 0 1 0 -1 1 2 4 4 3 4 5 6 4 4 4 4 5 6 6 6 7 7 8 8 7 6 5 4
4 2 4 8 11 8 8 9 10 10 15 18 16 21 20 13 13 15 19 16 10 11 14 16 11 1 3 12 8 6 8 7 12 13 1 0 12 7 2 3 1 -2 -4 -6 -5 3 7 2 0 -1 -4 -3 -5 -7 -8 -7 -2 4 8 9 8 6 2 1 1 2 3 4 3 3 1 -0 -0 0 2 4 4 4 4 6 6 4 5 7 7 6 6 6 6 5 6 8 9 8 7 6 5
11 5 2 5 9 11 9 7 13 10 12 19 13 14 19 14 10 15 20 16 13 12 8 15 17 -0 -0 15 13 6 7 6 1 6 7 1 5 7 2 2 3 2 1 3 2 2 6 4 1 0 1 2 1 1 -0 -1 -1 -0 3 6 6 5 4 3 3 2 1 3 3 3 3 2 2 1 3 3 3 4 5 6 6 5 7 9 9 9 8 8 8 7 6 6 7 8 7 7 8
16 12 4 2 6 10 10 9 11 9 9 13 12 13 15 13 11 13 18 15 13 14 4 3 10 6 2 5 12 11 1 4 9 3 2 2 0 2 2 2 2 -1 -4 1 4 4 4 2 1 3 4 4 2 1 1 3 2 1 2 5 5 3 4 4 3 2 1 2 2 2 2 2 3 4 6 6 7 8 8 9 9 9 9 9 9 10 10 10 10 9 8 7 7 7 8 8 8
15 16 11 6 5 9 12 11 12 12 9 4 5 12 15 13 12 12 16 15 12 14 12 3 0 6 7 -5 -0 16 16 16 23 23 19 14 11 8 8 8 7 9 10 11 11 9 7 5 6 7 6 5 6 7 7 7 6 4 2 5 5 3 3 2 2 1 0 1 2 4 7 9 10 11 11 10 11 11 11 11 10 9 8 8 8 7 7 7 8 8 8 8 8 7 7 6 6
12 13 12 9 6 9 12 13 15 15 18 19 15 14 17 16 11 11 15 17 14 11 16 15 6 4 5 -2 -8 -1 19 24 7 11 22 18 16 18 22 22 18 22 28 26 18 10 9 8 8 9 9 8 9 11 11 10 11 11 7 4 4 3 2 1 2 3 4 5 6 8 10 11 11 11 11 10 10 10 9 8 8 8 7 7 6 5 4 4 4 4 4 5 5 6 5 5 4
11 13 11 8 9 11 12 16 11 8 23 25 18 16 17 16 12 11 12 15 15 11 12 13 12 14 8 6 3 -12 -5 8 -3 -3 7 3 2 3 7 11 9 9 12 16 21 19 18 15 11 12 13 11 9 7 6 4 5 9 9 6 4 4 5 4 5 8 10 11 10 10 9 8 8 8 7 7 6 5 4 4 4 3 3 3 3 2 2 2 2 2 2 2 2 3 2 3 3
8 13 14 9 9 11 15 20 8 13 32 17 9 19 16 13 12 9 8 9 9 9 8 1 1 10 10 7 12 3 -8 -5 -5 -5 -1 0 0 -2 -2 -2 -2 0 -1 -0 6 11 14 15 12 11 11 11 10 10 10 7 5 7 9 9 9 9 9 9 8 8 8 9 8 8 7 6 5 4 4 3 3 2 2 1 1 1 1 2 2 2 3 3 3 3 4 4 4 4 4 5 6
4 7 13 12 9 9 15 22 11 14 24 9 8 15 9 9 8 7 10 9 6 3 2 1 -1 0 4 6 9 12 6 2 -1 -5 -5 -3 -3 -2 -0 -1 -3 1 4 3 3 5 6 7 8 8 8 8 7 8 9 8 7 7 7 8 9 9 9 9 8 7 6 5 4 4 4 3 3 2 2 2 2 2 2 2 2 3 3 4 5 5 6 7 7 8 8 9 9 8 8 9 9
5 4 8 12 12 9 14 22 14 7 5 1 4 2 2 5 1 2 7 5 1 -0 0 3 7 6 6 7 9 13 13 11 8 3 0 -2 -2 -1 -0 -0 -2 -2 4 8 9 10 8 7 6 5 4 4 4 5 5 5 6 6 6 7 7 7 7 6 6 6 5 4 3 3 2 2 2 2 2 3 3 3 4 5 5 5 6 7 8 8 9 9 10 9 9 9 9 8 7 7 6
6 5 3 8 12 10 13 20 15 8 3 -2 -8 -11 -3 4 8 12 12 15 11 5 5 5 6 9 9 8 8 10 11 11 11 10 8 5 4 3 4 4 1 -2 -1 3 6 8 7 7 7 6 6 5 5 5 5 6 5 6 7 6 5 5 4 4 3 3 2 2 2 2 2 2 3 3 4 4 4 5 6 7 7 8 8 8 8 8 7 6 6 6 5 5 4 5 4 4 3
6 6 4 4 8 9 10 16 16 12 9 6 1 -3 -3 0 8 9 10 24 28 15 9 8 7 6 5 6 6 7 8 8 8 9 10 10 10 8 9 9 8 7 5 4 5 6 7 8 9 9 10 9 9 8 8 7 6 6 5 5 4 3 2 2 1 2 2 3 3 3 3 4 4 5 6 6 7 8 8 8 8 7 6 6 5 4 4 3 4 3 3 3 3 3 3 4 4
6 6 7 3 3 7 8 11 14 12 8 7 11 11 6 0 -1 -4 -0 11 17 15 11 8 8 6 6 5 6 7 7 6 5 5 6 7 8 8 9 8 8 9 9 8 6 5 7 7 8 8 8 8 8 8 7 7 6 5 4 3 3 3 3 3 3 4 5 5 6 6 7 8 8 9 9 9 8 7 7 6 5 5 4 4 4 4 4 3 4 4 4 4 5 5 6 6 7
8 6 7 6 4 4 6 7 10 10 7 5 7 8 7 5 2 -0 2 4 2 4 3 1 1 1 3 3 4 5 5 6 6 6 7 7 8 8 9 9 8 7 7 7 6 5 5 4 4 4 4 4 4 4 4 4 4 4 4 4 4 5 6 6 7 8 8 9 9 10 9 9 9 8 7 6 5 5 4 4 3 3 3 3 4 4 4 5 5 5 6 7 7 8 8 8 8
9 8 7 6 5 4 3 5 6 8 9 8 7 7 6 4 3 2 2 3 3 2 -0 -1 -1 -2 -0 1 3 4 2 3 3 3 4 3 4 5 5 5 6 6 5 5 4 4 3 3 3 3 3 3 3 4 4 4 4 5 6 7 8 9 9 9 9 9 9 9 7 7 6 5 4 4 4 3 3 3 3 3 3 3 4 5 5 6 6 7 7 7 7 7 7 8 8 8 7
9 8 8 6 5 6 4 4 4 5 7 8 9 9 9 6 4 4 4 4 4 5 5 4 4 4 5 6 6 6 5 4 3 2 2 1 1 2 2 2 2 2 2 3 3 3 3 3 3 3 4 4 4 5 5 6 7 8 9 9 9 8 8 7 6 5 5 4 4 4 3 3 3 3 3 3 3 3 3 4 5 5 7 7 7 8 7 7 7 8 8 8 7 6 5 6 6
11 9 10 12 12 11 9 7 5 4 4 4 5 6 8 9 8 7 8 8 7 7 7 7 7 6 5 6 6 6 6 6 5 5 4 5 4 3 3 3 3 4 5 6 6 7 6 6 7 7 7 7 8 8 8 8 8 8 7 6 6 5 5 5 5 5 4 5 4 4 4 4 4 4 4 4 4 5 5 6 8 8 9 9 9 8 8 8 8 7 7 7 7 5 4 3 3
10 9 8 9 10 10 9 8 6 6 5 4 4 3 3 5 7 8 8 9 11 11 12 12 12 11 10 9 8 7 8 7 8 8 8 8 8 9 10 10 10 10 11 11 11 11 11 10 10 10 10 9 9 8 8 7 6 5 4 4 4 4 5 5 5 5 5 5 5 5 5 5 5 5 5 6 6 7 8 9 10 9 8 8 8 7 7 7 7 6 6 5 5 5 4 3 2
6 6 6 5 5 7 8 7 7 7 7 6 6 5 4 4 3 4 5 5 6 7 8 10 10 11 11 11 11 11 11 11 11 11 12 12 12 13 12 12 12 11 10 9 9 9 8 8 7 7 7 6 6 6 5 5 5 5 4 4 4 4 4 4 4 4 5 5 5 5 5 6 6 6 7 7 8 9 10 9 9 8 7 7 6 6 6 5 5 6 5 5 5 6 6 5 4
7 6 7 7 7 7 8 8 9 9 8 8 8 8 8 8 7 5 4 4 4 4 4 5 5 6 6 6 6 6 6 7 7 7 8 8 8 8 7 7 6 6 6 5 6 5 5 5 5 5 5 5 5 5 5 5 5 5 4 4 3 4 4 4 4 4 5 5 5 6 6 7 7 8 9 9 10 10 9 8 7 7 6 6 5 5 4 4 4 4 5 5 4 4 5 5 5
9 9 8 8 7 7 7 7 8 8 9 9 9 9 9 9 10 9 8 7 6 5 5 4 4 4 4 4 4 5 5 5 5 5 5 5 5 6 6 6 6 6 6 6 6 5 5 5 5 5 5 5 5 5 5 4 4 5 5 5 4 5 5 5 5 5 6 6 6 7 7 8 9 10 10 10 9 8 7 6 5 5 5 5 5 5 5 4 4 4 3 3 3 2 3 3 3
9 9 9 9 8 7 6 6 6 6 6 7 8 8 8 9 9 10 10 10 10 9 8 7 7 6 6 6 6 6 6 6 5 5 5 5 5 5 4 4 5 5 5 5 5 5 5 5 5 5 5 5 5 5 5 5 6 6 6 6 5 6 6 6 7 7 7 7 8 8 8 9 10 10 9 8 6 5 5 5 5 5 4 5 5 5 5 4 4 4 3 3 4 3 3 3 3
8 9 8 9 9 8 6 6 5 6 6 5 6 6 6 6 7 8 9 9 9 10 10 10 10 9 9 9 8 8 8 8 8 7 7 7 6 6 6 6 5 5 5 5 6 6 6 6 6 6 6 6 5 5 5 5 6 5 5 6 6 6 7 7 8 8 8 8 8 9 9 10 9 9 7 6 5 5 5 5 4 4 4 4 4 4 4 4 4 4 4 4 3 3 3 3 3
8 7 7 8 8 7 7 7 7 6 6 6 6 5 4 5 6 7 7 7 7 7 7 8 8 8 9 9 8 9 9 9 9 8 8 7 7 7 7 7 7 6 7 6 6 6 6 6 6 6 5 5 5 5 5 6 6 6 6 7 7 7 8 8 8 8 9 9 9 9 9 9 8 6 4 4 4 4 4 3 3 3 4 4 4 4 4 4 4 4 4 3 3 2 2 2 3
8 7 8 8 7 7 7 8 7 6 7 7 7 6 6 7 7 7 6 6 6 6 6 5 5 5 5 5 5 5 5 4 5 5 5 5 5 5 5 6 6 6 6 6 6 6 6 6 6 6 6 6 6 6 7 7 7 8 8 8 8 9 9 9 8 8 8 8 8 9 8 6 4 3 3 4 4 4 4 4 5 5 6 6 5 5 5 4 4 4 3 4 3 3 2 3 4
8 8 9 8 7 8 8 7 7 7 7 7 7 6 7 9 8 8 7 7 7 6 7 7 8 8 7 6 5 5 5 5 5 6 6 7 6 6 7 7 7 7 7 7 7 7 7 8 8 8 8 8 8 8 8 8 9 9 9 9 9 8 8 7 7 7 7 8 9 8 6 4 3 4 4 5 5 5 6 6 6 6 5 5 5 4 4 4 4 5 5 5 6 6 6 5 6
7 8 7 7 7 7 6 7 6 7 7 7 7 6 6 8 9 9 9 9 9 10 12 11 11 11 10 10 9 9 9 9 9 8 8 8 8 8 8 8 8 8 8 8 8 9 8 8 9 9 9 9 9 9 9 9 9 9 8 8 7 6 6 6 6 7 9 9 8 6 4 4 5 6 6 6 6 6 6 6 5 5 5 5 5 5 6 6 6 7 7 7 8 8 9 7 7
8 8 8 8 8 7 7 6 6 6 6 6 6 7 8 8 7 9 9 9 11 13 13 11 10 9 9 10 10 10 10 10 10 10 9 9 9 9 9 9 9 8 9 8 8 8 8 8 8 8 8 8 8 8 8 8 8 7 6 6 6 6 6 7 9 9 9 7 5 4 4 5 5 5 5 5 6 6 6 6 6 6 7 7 7 7 7 7 7 8 8 9 9 9 10 9 9
8 9 10 10 10 9 9 9 8 8 7 7 7 9 11 9 5 6 7 9 12 12 10 10 11 11 11 11 11 10 10 10 10 10 9 9 9 9 8 8 8 8 8 8 8 8 8 8 8 8 9 8 8 8 8 8 7 6 6 6 7 8 9 9 9 7 5 4 4 4 5 5 4 4 5 6 6 6 6 6 6 7 7 7 7 7 8 8 9 9 9 9 8 8 8 7 8
9 9 9 10 10 10 11 11 11 11 10 9 10 13 14 12 8 8 10 11 11 10 9 11 11 10 9 9 9 9 9 8 8 8 9 9 9 9 9 9 9 9 10 9 10 10 9 9 9 9 9 8 8 7 7 7 7 7 7 8 9 10 9 7 6 4 4 4 5 5 5 5 6 6 7 6 6 7 6 7 7 7 8 8 8 8 8 9 8 8 8 7 6 6 5 5 5
8 8 8 8 8 8 9 9 10 11 10 7 9 12 12 10 7 7 11 12 12 12 11 11 10 9 9 8 8 7 8 8 8 9 9 9 9 9 9 9 9 9 10 10 9 9 9 8 8 8 8 8 8 8 8 8 8 9 9 9 8 7 6 4 4 4 5 5 5 5 6 6 7 7 7 7 7 8 8 8 8 8 9 8 8 8 7 7 6 6 5 5 5 4 5 5 5
6 7 7 7 7 7 7 6 6 7 8 5 4 6 6 4 4 5 8 10 12 13 13 12 11 10 9 9 9 9 9 9 8 8 9 8 8 8 8 8 8 8 8 8 8 8 8 8 8 9 9 9 9 9 9 9 9 9 8 7 6 5 5 5 5 6 5 6 6 6 7 6 7 7 7 8 8 8 8 8 8 8 8 7 7 6 5 5 5 5 4 5 5 5 6 6 6
6 6 7 7 8 7 6 5 4 5 5 4 3 3 5 4 4 5 5 5 7 9 10 11 11 10 10 10 11 11 11 10 10 9 9 8 8 8 9 8 8 8 8 8 8 8 8 9 9 9 9 9 9 8 8 8 8 7 7 7 6 6 7 6 6 6 6 7 7 6 6 6 6 7 8 8 8 7 7 7 7 7 6 6 5 5 4 4 4 4 5 5 6 6 6 6 7
5 6 7 7 7 7 7 6 5 6 5 5 5 4 5 6 5 5 4 4 4 5 6 6 7 8 8 8 8 8 8 7 6 5 4 5 6 7 7 7 7 7 7 7 8 8 8 9 8 8 8 8 8 8 8 8 8 8 8 7 8 7 7 7 7 7 7 7 6 7 7 7 7 7 7 7 7 8 7 7 6 5 5 5 4 4 4 4 5 5 5 6 6 6 6 7 6
5 4 4 4 4 5 5 3 3 5 4 4 5 5 5 7 7 5 5 6 6 6 5 4 5 6 7 7 6 5 3 3 2 2 2 3 4 6 6 7 7 8 8 8 9 9 9 9 9 9 9 9 9 9 9 9 8 8 8 7 7 7 6 7 6 6 7 7 7 8 8 8 7 7 7 8 7 7 6 6 5 4 4 4 4 5 5 5 6 6 7 7 7 6 6 6 7
5 4 3 4 4 4 5 5 5 6 7 7 7 7 7 7 8 7 7 8 8 9 9 8 8 7 7 6 5 5 5 4 3 2 3 4 5 7 7 8 9 9 9 9 9 9 8 9 9 9 10 9 9 9 8 8 8 7 7 6 6 6 6 7 7 7 8 9 9 8 8 8 8 8 8 7 6 5 4 4 4 4 4 4 5 5 6 6 6 7 7 6 6 7 7 7 8
7 7 7 8 7 6 7 9 9 8 8 8 7 8 9 8 9 8 8 9 7 7 8 9 10 8 8 8 7 7 5 3 2 2 5 8 9 11 11 11 11 10 10 9 9 9 8 9 9 9 9 8 8 8 8 7 7 6 6 6 6 7 7 8 9 9 9 9 8 8 8 8 7 7 6 5 4 4 4 4 4 4 4 5 6 6 6 6 6 6 6 6 7 7 8 10 12
9 8 8 7 7 7 7 8 9 8 7 7 7 7 7 8 8 7 7 8 6 7 8 9 10 10 9 9 7 5 3 3 5 8 10 11 11 12 12 11 11 10 10 10 10 10 10 10 10 9 9 9 8 8 8 7 7 6 6 7 8 8 9 9 9 9 8 7 7 7 7 6 6 5 4 4 4 4 4 4 4 5 5 6 7 6 6 6 6 6 7 7 8 10 13 17 20
7 6 7 7 8 8 8 7 7 8 7 7 6 7 7 8 8 6 5 6 6 7 8 8 9 9 7 7 6 6 8 9 10 10 9 9 10 11 10 10 10 10 9 10 10 10 11 10 10 9 9 9 9 9 8 8 8 8 9 9 10 9 9 8 7 6 6 6 7 7 6 6 5 5 4 4 4 4 4 4 5 6 6 7 6 6 5 6 6 7 8 10 12 16 21 27 32
6 6 8 10 11 10 9 7 6 8 7 7 6 4 6 9 9 8 6 7 7 6 7 8 8 8 6 7 9 10 11 10 9 8 7 8 9 8 8 8 8 8 8 9 10 10 10 10 10 10 10 10 10 9 9 9 9 9 9 9 8 7 7 7 7 7 7 7 7 7 6 5 5 5 4 4 4 4 4 5 6 6 6 6 5 6 6 6 8 10 12 15 20 27 33 38 41
10 10 11 14 14 12 12 9 8 11 9 9 7 1 3 8 8 9 8 7 8 7 8 9 8 8 8 9 10 10 10 10 9 8 7 7 8 7 7 7 7 8 9 9 10 9 9 9 9 9 9 9 9 9 9 9 9 8 8 7 7 7 7 7 8 8 8 8 7 6 5 5 4 4 3 3 4 4 5 6 6 6 6 5 5 6 7 8 11 15 19 24 32 39 43 43 42
10 9 10 13 12 12 13 6 8 14 9 9 7 -1 4 10 7 8 10 10 11 10 8 8 7 8 9 8 9 9 9 9 8 9 8 8 8 7 7 8 9 10 10 10 10 10 10 10 10 9 9 9 9 9 9 8 8 8 7 7 7 7 8 8 8 8 7 6 5 4 4 3 3 3 3 3 4 6 7 7 6 6 6 6 6 7 9 12 17 22 28 35 42 45 43 40 37
Height
5849 5848 5847 5846 5845 5844 5843 5844 5843 5842 5844 5843 5844 5845 5847 5849 5851 5853 5854 5855 5857 5859 5861 5862 5864 5866 5868 5869 5871 5873 5874 5874 5875 5877 5878 5878 5878 5879 5881 5882 5883 5884 5885 5886 5885 5885 5888 5889 5887 5885 5883 5881 5881 5882 5882 5882 5882 5882 5882 5883 5883 5883 5884 5884 5884 5885 5886 5886 5886 5886 5886 5886 5887 5887 5887 5887 5887 5888 5887 5887 5887 5886 5886 5886 5886 5885 5885 5885 5884 5884 5884 5883 5883 5883 5883 5882 5882
5844 5842 5841 5840 5839 5838 5836 5837 5836 5836 5838 5837 5839 5841 5841 5844 5846 5848 5850 5851 5853 5855 5857 5859 5861 5863 5865 5866 5867 5869 5870 5871 5873 5875 5876 5876 5877 5878 5879 5880 5881 5882 5883 5884 5883 5882 5885 5885 5882 5880 5879 5879 5879 5880 5880 5880 5879 5879 5880 5881 5881 5881 5882 5882 5883 5883 5883 5884 5884 5884 5884 5884 5884 5884 5884 5884 5884 5884 5884 5884 5884 5883 5883 5882 5883 5882 5882 5882 5881 5881 5881 5881 5880 5880 5880 5880 5879
5840 5838 5836 5835 5833 5832 5830 5830 5829 5830 5830 5831 5834 5836 5836 5839 5841 5844 5845 5847 5849 5851 5853 5855 5858 5859 5861 5862 5864 5866 5867 5869 5871 5873 5874 5875 5876 5876 5877 5878 5879 5880 5881 5881 5880 5879 5881 5881 5878 5877 5877 5877 5877 5878 5878 5877 5877 5877 5878 5879 5879 5879 5879 5879 5880 5880 5881 5880 5881 5881 5881 5881 5881 5881 5881 5881 5881 5880 5880 5880 5880 5880 5879 5879 5879 5879 5879 5879 5878 5878 5878 5878 5877 5877 5877 5877 5877
5836 5834 5832 5830 5828 5826 5823 5822 5821 5822 5823 5827 5829 5830 5832 5834 5837 5840 5842 5844 5845 5848 5850 5852 5854 5856 5858 5859 5861 5863 5865 5866 5868 5870 5872 5872 5873 5873 5875 5876 5877 5879 5879 5878 5878 5878 5878 5878 5875 5874 5874 5874 5874 5875 5875 5875 5875 5876 5876 5876 5876 5876 5877 5877 5876 5877 5877 5877 5877 5877 5878 5877 5878 5878 5877 5877 5877 5877 5877 5877 5877 5876 5876 5876 5876 5876 5876 5875 5875 5875 5875 5875 5875 5874 5874 5874 5874
5833 5831 5829 5826 5823 5821 5818 5815 5814 5816 5819 5822 5824 5825 5828 5831 5834 5837 5839 5841 5843 5845 5847 5849 5851 5853 5855 5856 5858 5860 5862 5864 5865 5867 5869 5870 5870 5871 5873 5874 5875 5876 5875 5874 5875 5876 5875 5875 5873 5871 5870 5871 5871 5872 5872 5872 5873 5873 5873 5874 5874 5874 5874 5874 5874 5874 5874 5874 5874 5874 5874 5874 5874 5874 5874 5874 5874 5874 5874 5874 5874 5873 5873 5872 5872 5872 5872 5872 5872 5872 5872 5871 5871 5871 5871 5871 5871
5830 5828 5826 5823 5820 5816 5813 5810 5809 5811 5814 5817 5820 5822 5825 5828 5831 5833 5835 5838 5840 5842 5844 5846 5848 5850 5852 5853 5855 5857 5859 5861 5862 5864 5866 5867 5869 5869 5870 5872 5873 5873 5871 5871 5873 5873 5872 5871 5870 5869 5868 5868 5868 5869 5870 5870 5871 5871 5871 5872 5872 5872 5872 5872 5872 5872 5871 5871 5871 5871 5871 5871 5871 5871 5871 5871 5871 5871 5871 5870 5870 5870 5869 5869 5869 5869 5869 5868 5869 5869 5868 5868 5868 5868 5868 5867 5867
5827 5825 5823 5820 5817 5813 5810 5807 5806 5806 5809 5813 5816 5819 5822 5825 5828 5830 5833 5835 5837 5840 5841 5843 5845 5848 5850 5851 5853 5855 5856 5858 5860 5862 5863 5865 5866 5867 5868 5869 5870 5869 5869 5869 5870 5870 5869 5869 5868 5867 5867 5867 5866 5866 5867 5868 5868 5868 5869 5869 5869 5869 5869 5869 5869 5869 5868 5868 5868 5868 5868 5868 5868 5868 5868 5867 5868 5867 5867 5867 5867 5866 5866 5866 5866 5865 5865 5865 5865 5865 5864 5864 5864 5864 5863 5863 5863
5825 5823 5820 5818 5814 5811 5808 5805 5804 5803 5805 5809 5812 5815 5819 5823 5825 5828 5830 5832 5835 5838 5839 5841 5843 5846 5848 5849 5850 5852 5854 5856 5858 5859 5861 5862 5863 5864 5865 5867 5867 5867 5867 5867 5867 5867 5866 5866 5865 5865 5865 5864 5863 5863 5864 5865 5865 5866 5866 5866 5866 5866 5866 5866 5866 5866 5866 5865 5865 5865 5864 5864 5864 5864 5864 5864 5864 5864 5864 5863 5863 5863 5862 5862 5862 5861 5861 5861 5860 5860 5860 5860 5860 5859 5859 5859 5859
5823 5821 5818 5816 5813 5810 5807 5805 5803 5802 5803 5806 5809 5812 5816 5820 5823 5825 5828 5830 5832 5835 5836 5838 5840 5842 5844 5846 5847 5848 5850 5853 5855 5856 5858 5859 5861 5862 5863 5864 5864 5864 5864 5864 5863 5863 5863 5863 5863 5862 5862 5862 5861 5861 5861 5862 5862 5863 5863 5864 5864 5864 5864 5863 5863 5863 5862 5862 5862 5862 5861 5861 5861 5861 5861 5861 5861 5860 5860 5860 5860 5859 5858 5858 5857 5857 5857 5857 5856 5856 5856 5856 5856 5855 5855 5855 5855
5821 5819 5817 5815 5812 5809 5807 5804 5802 5801 5802 5804 5806 5809 5813 5817 5821 5824 5825 5827 5829 5831 5831 5834 5837 5838 5841 5842 5844 5845 5847 5850 5852 5853 5855 5857 5858 5859 5860 5860 5860 5860 5860 5861 5860 5860 5860 5860 5860 5860 5860 5860 5859 5859 5859 5859 5859 5859 5860 5860 5860 5860 5860 5859 5859 5858 5859 5858 5858 5858 5858 5858 5857 5857 5857 5857 5857 5857 5857 5856 5856 5855 5855 5854 5854 5854 5853 5853 5853 5852 5852 5852 5852 5851 5851 5851 5851
5820 5818 5815 5813 5811 5809 5807 5804 5802 5801 5801 5802 5804 5806 5810 5814 5818 5821 5822 5824 5826 5827 5827 5831 5834 5836 5838 5840 5842 5843 5845 5847 5849 5850 5852 5854 5855 5856 5856 5856 5856 5856 5857 5858 5857 5857 5857 5857 5857 5858 5858 5858 5857 5857 5857 5857 5857 5856 5856 5856 5856 5856 5856 5855 5855 5855 5855 5855 5855 5855 5855 5854 5854 5854 5854 5854 5854 5854 5853 5853 5852 5852 5851 5851 5850 5850 5850 5850 5849 5849 5848 5848 5848 5847 5847 5847 5846
5818 5816 5814 5813 5811 5809 5807 5804 5803 5801 5801 5801 5802 5804 5807 5810 5814 5817 5820 5821 5823 5824 5825 5827 5831 5834 5836 5838 5840 5841 5843 5845 5846 5849 5850 5852 5852 5852 5851 5852 5853 5853 5854 5854 5854 5854 5854 5854 5854 5854 5855 5854 5854 5854 5854 5854 5854 5854 5853 5853 5853 5852 5852 5852 5851 5852 5852 5851 5851 5852 5852 5852 5852 5851 5851 5851 5851 5850 5849 5849 5849 5848 5848 5847 5847 5847 5846 5846 5845 5845 5845 5844 5844 5844 5843 5843 5842
5816 5815 5813 5812 5811 5809 5807 5805 5803 5801 5800 5800 5801 5803 5805 5807 5811 5814 5816 5818 5820 5821 5823 5825 5828 5832 5834 5836 5837 5839 5841 5842 5844 5847 5848 5848 5849 5849 5848 5849 5850 5850 5851 5851 5851 5851 5851 5851 5851 5851 5851 5851 5851 5850 5850 5850 5850 5851 5851 5850 5850 5849 5849 5848 5848 5849 5849 5849 5848 5849 5849 5848 5848 5848 5847 5847 5846 5846 5846 5845 5845 5845 5844 5844 5843 5843 5843 5842 5842 5841 5841 5840 5840 5839 5839 5838 5838
5815 5813 5812 5811 5810 5808 5806 5805 5803 5801 5800 5799 5800 5801 5802 5805 5808 5811 5813 5816 5818 5820 5822 5825 5827 5829 5832 5834 5836 5837 5838 5840 5842 5843 5844 5844 5846 5846 5846 5846 5846 5847 5847 5847 5848 5848 5848 5848 5848 5848 5848 5848 5848 5848 5847 5847 5847 5847 5847 5847 5846 5845 5845 5845 5846 5846 5846 5846 5845 5845 5845 5844 5844 5844 5843 5843 5843 5842 5842 5842 5841 5841 5840 5840 5840 5839 5839 5838 5838 5837 5836 5836 5835 5835 5835 5834 5833
5814 5812 5811 5810 5809 5807 5806 5804 5803 5801 5800 5799 5800 5801 5802 5804 5806 5809 5812 5814 5816 5818 5821 5823 5826 5827 5830 5832 5834 5835 5836 5838 5839 5840 5841 5842 5843 5843 5843 5844 5843 5843 5843 5844 5844 5845 5845 5845 5846 5846 5845 5845 5845 5845 5844 5844 5843 5843 5843 5843 5843 5842 5842 5842 5842 5842 5842 5842 5842 5841 5841 5841 5840 5840 5840 5839 5839 5839 5838 5838 5837 5837 5836 5836 5835 5835 5834 5834 5833 5833 5832 5831 5831 5830 5830 5829 5829
5813 5811 5810 5809 5808 5806 5805 5803 5802 5800 5799 5799 5800 5801 5802 5804 5805 5808 5810 5812 5814 5817 5819 5822 5824 5826 5828 5830 5831 5832 5834 5835 5836 5837 5838 5839 5840 5840 5841 5841 5841 5840 5840 5840 5840 5841 5842 5842 5843 5842 5842 5842 5842 5842 5841 5841 5840 5840 5839 5839 5839 5839 5839 5838 5838 5838 5838 5838 5838 5837 5837 5837 5837 5836 5836 5836 5835 5835 5834 5834 5833 5833 5832 5831 5831 5830 5830 5829 5829 5828 5827 5827 5826 5826 5825 5825 5824
5811 5810 5809 5808 5806 5805 5804 5802 5801 5800 5799 5800 5800 5801 5803 5804 5805 5807 5808 5810 5813 5815 5817 5820 5822 5825 5827 5828 5829 5830 5831 5832 5833 5834 5835 5836 5836 5837 5837 5838 5838 5838 5837 5837 5837 5838 5838 5839 5839 5839 5839 5839 5838 5838 5838 5838 5837 5837 5837 5837 5836 5836 5836 5835 5835 5835 5834 5834 5834 5834 5833 5833 5833 5832 5832 5832 5831 5831 5830 5829 5829 5828 5828 5827 5826 5826 5825 5825 5824 5823 5823 5822 5822 5821 5820 5820 5820
5810 5809 5808 5806 5805 5804 5803 5802 5801 5800 5799 5799 5800 5801 5802 5804 5805 5807 5808 5810 5812 5813 5816 5818 5820 5823 5824 5825 5826 5827 5829 5830 5830 5831 5831 5832 5833 5834 5834 5835 5836 5835 5834 5834 5834 5835 5835 5835 5835 5835 5835 5835 5835 5835 5834 5834 5834 5834 5834 5834 5833 5833 5833 5832 5832 5832 5831 5831 5830 5830 5830 5829 5829 5828 5828 5827 5827 5826 5826 5825 5824 5824 5823 5822 5822 5821 5821 5820 5819 5819 5818 5818 5817 5816 5816 5815 5815
5809 5808 5807 5805 5804 5803 5802 5801 5800 5800 5799 5798 5799 5801 5802 5803 5805 5807 5808 5809 5811 5812 5814 5816 5818 5820 5821 5822 5823 5825 5827 5828 5828 5829 5829 5829 5830 5831 5831 5832 5833 5832 5832 5831 5831 5832 5832 5831 5832 5832 5832 5832 5832 5832 5831 5831 5831 5831 5830 5830 5830 5830 5829 5829 5829 5828 5828 5827 5827 5827 5826 5825 5825 5824 5824 5823 5822 5822 5821 5820 5820 5819 5819 5818 5817 5816 5816 5815 5814 5813 5813 5812 5812 5811 5811 5810 5810
5808 5807 5806 5805 5803 5802 5801 5800 5800 5799 5798 5798 5799 5800 5801 5803 5804 5806 5807 5809 5810 5812 5813 5814 5816 5817 5819 5820 5821 5823 5825 5826 5826 5826 5826 5827 5827 5828 5829 5829 5829 5829 5829 5828 5827 5828 5828 5828 5828 5828 5828 5829 5829 5829 5828 5828 5828 5827 5827 5827 5826 5826 5826 5825 5825 5824 5824 5824 5823 5823 5822 5821 5820 5820 5819 5818 5817 5817 5816 5815 5815 5814 5814 5813 5812 5811 5810 5810 5809 5808 5807 5807 5806 5806 5805 5805 5804
5808 5806 5805 5804 5803 5801 5799 5799 5799 5798 5798 5798 5798 5799 5800 5802 5804 5805 5807 5808 5810 5812 5813 5813 5814 5815 5816 5817 5819 5820 5821 5822 5822 5821 5822 5823 5824 5825 5826 5825 5825 5825 5825 5824 5824 5824 5824 5825 5825 5825 5825 5825 5825 5825 5825 5825 5824 5824 5824 5823 5823 5822 5822 5821 5821 5820 5820 5819 5819 5818 5817 5816 5816 5815 5814 5813 5812 5812 5811 5811 5810 5809 5809 5808 5807 5806 5805 5804 5804 5803 5802 5801 5801 5800 5800 5799 5798
5807 5806 5805 5803 5802 5800 5799 5798 5798 5797 5797 5797 5797 5798 5800 5802 5803 5805 5807 5808 5810 5811 5812 5813 5813 5814 5814 5814 5816 5817 5817 5818 5818 5817 5818 5819 5819 5820 5821 5821 5821 5821 5821 5821 5821 5821 5822 5821 5821 5822 5822 5822 5822 5822 5821 5821 5820 5820 5820 5819 5819 5818 5818 5817 5817 5816 5815 5814 5814 5813 5812 5812 5811 5810 5810 5809 5808 5807 5806 5806 5805 5804 5803 5802 5802 5801 5800 5799 5798 5798 5797 5796 5795 5794 5793 5793 5792
5807 5805 5804 5803 5802 5800 5798 5798 5797 5796 5795 5796 5797 5798 5800 5801 5803 5805 5806 5807 5808 5810 5811 5812 5812 5812 5812 5813 5813 5814 5814 5814 5815 5815 5815 5815 5815 5816 5816 5817 5817 5817 5817 5817 5818 5818 5818 5818 5818 5818 5819 5818 5818 5818 5817 5816 5816 5816 5815 5815 5815 5814 5814 5813 5812 5812 5811 5810 5809 5808 5808 5807 5806 5806 5805 5804 5803 5803 5802 5801 5800 5799 5798 5797 5797 5796 5795 5794 5793 5792 5791 5790 5789 5788 5787 5786 5785
5807 5805 5804 5803 5801 5800 5798 5797 5798 5796 5795 5797 5798 5798 5800 5801 5803 5804 5805 5806 5807 5808 5810 5811 5811 5811 5811 5811 5812 5812 5812 5812 5813 5812 5812 5812 5812 5812 5812 5812 5813 5813 5814 5814 5815 5815 5815 5815 5814 5815 5815 5815 5814 5814 5813 5813 5812 5811 5811 5811 5810 5810 5809 5808 5808 5807 5806 5805 5805 5804 5803 5803 5802 5801 5800 5799 5798 5798 5796 5796 5795 5794 5793 5792 5791 5790 5789 5788 5787 5786 5785 5784 5783 5782 5780 5779 5778
5806 5805 5803 5802 5801 5800 5799 5798 5798 5797 5797 5799 5799 5799 5801 5802 5803 5804 5804 5805 5806 5807 5809 5810 5810 5810 5810 5810 5811 5811 5812 5811 5811 5811 5810 5809 5808 5808 5808 5808 5809 5809 5810 5811 5811 5812 5812 5812 5811 5811 5811 5811 5810 5810 5810 5809 5808 5807 5807 5806 5806 5805 5805 5804 5803 5802 5801 5801 5800 5799 5798 5798 5797 5796 5795 5794 5793 5792 5791 5790 5790 5789 5788 5787 5786 5785 5784 5782 5781 5780 5779 5778 5776 5775 5774 5772 5771
5805 5804 5803 5802 5801 5800 5799 5798 5798 5798 5799 5799 5800 5800 5801 5802 5803 5803 5804 5805 5806 5807 5808 5809 5809 5809 5809 5809 5809 5810 5810 5810 5810 5810 5809 5808 5807 5806 5806 5806 5806 5806 5806 5807 5808 5808 5808 5808 5808 5807 5807 5807 5806 5806 5805 5805 5804 5803 5803 5802 5802 5801 5800 5800 5799 5798 5797 5796 5795 5794 5793 5792 5791 5790 5789 5788 5787 5786 5785 5784 5783 5782 5781 5780 5780 5779 5777 5776 5775 5774 5773 5771 5770 5769 5768 5766 5764
5805 5804 5802 5801 5800 5800 5799 5798 5798 5799 5799 5799 5799 5799 5800 5801 5802 5802 5803 5804 5805 5806 5807 5807 5808 5808 5808 5807 5807 5807 5807 5808 5808 5808 5807 5806 5805 5805 5804 5804 5804 5804 5804 5803 5804 5804 5804 5804 5804 5804 5803 5802 5802 5801 5801 5800 5799 5799 5799 5798 5797 5796 5796 5795 5794 5793 5792 5791 5790 5788 5787 5786 5785 5784 5783 5782 5781 5780 5779 5778 5777 5776 5775 5774 5773 5772 5771 5770 5769 5767 5766 5765 5764 5762 5761 5759 5758
5803 5802 5802 5801 5800 5799 5798 5798 5798 5798 5798 5798 5798 5798 5799 5800 5801 5802 5802 5802 5802 5803 5804 5805 5805 5806 5806 5806 5805 5805 5804 5804 5804 5804 5804 5804 5803 5802 5801 5802 5802 5801 5801 5800 5800 5800 5800 5800 5799 5799 5799 5798 5798 5797 5797 5796 5795 5795 5794 5793 5793 5792 5791 5789 5788 5788 5786 5785 5784 5783 5781 5780 5779 5778 5777 5776 5775 5774 5773 5772 5771 5770 5769 5768 5767 5766 5765 5763 5762 5760 5759 5758 5757 5755 5754 5752 5750
5803 5801 5800 5799 5799 5798 5797 5797 5797 5797 5797 5798 5798 5798 5798 5799 5799 5800 5801 5801 5801 5802 5803 5803 5803 5804 5804 5804 5804 5803 5803 5802 5801 5800 5800 5800 5800 5799 5798 5798 5798 5797 5797 5797 5796 5796 5795 5795 5795 5794 5794 5794 5793 5793 5792 5792 5791 5790 5789 5789 5788 5786 5785 5784 5783 5782 5781 5780 5779 5777 5776 5775 5774 5772 5771 5770 5769 5768 5767 5766 5765 5764 5763 5762 5760 5759 5758 5756 5755 5753 5752 5751 5749 5748 5746 5745 5743
5802 5801 5799 5798 5797 5797 5796 5796 5795 5796 5796 5796 5796 5797 5797 5797 5797 5798 5799 5800 5800 5801 5801 5801 5802 5802 5802 5802 5802 5801 5801 5800 5800 5799 5798 5797 5797 5796 5796 5795 5794 5794 5793 5793 5792 5792 5791 5791 5790 5790 5789 5789 5788 5788 5787 5786 5786 5785 5784 5783 5782 5781 5780 5779 5778 5777 5776 5774 5773 5772 5770 5769 5768 5767 5766 5764 5763 5762 5761 5760 5759 5758 5756 5755 5753 5752 5750 5748 5747 5746 5744 5743 5741 5740 5739 5737 5736
5801 5800 5798 5797 5796 5795 5795 5795 5794 5794 5794 5794 5794 5795 5796 5796 5795 5796 5796 5797 5797 5798 5798 5799 5799 5799 5798 5798 5798 5798 5798 5797 5797 5796 5796 5795 5794 5793 5793 5792 5791 5791 5790 5789 5789 5788 5787 5787 5786 5785 5785 5784 5783 5782 5781 5780 5780 5779 5778 5777 5777 5776 5774 5773 5772 5771 5770 5768 5767 5766 5765 5763 5762 5761 5760 5758 5757 5756 5755 5754 5752 5751 5749 5747 5746 5744 5742 5741 5739 5737 5736 5735 5734 5732 5731 5729 5728
5799 5798 5797 5796 5795 5794 5794 5793 5793 5792 5792 5792 5792 5792 5794 5794 5793 5793 5793 5793 5794 5794 5795 5795 5795 5795 5795 5795 5795 5794 5794 5794 5793 5793 5792 5792 5791 5791 5790 5789 5788 5787 5786 5786 5785 5784 5784 5783 5782 5781 5780 5779 5778 5777 5776 5775 5774 5773 5773 5772 5771 5770 5769 5768 5766 5765 5764 5763 5761 5760 5759 5757 5756 5754 5753 5752 5750 5749 5748 5747 5745 5743 5741 5740 5738 5736 5735 5733 5731 5729 5728 5726 5725 5725 5723 5721 5720
5797 5796 5795 5795 5794 5793 5793 5792 5791 5791 5790 5790 5789 5790 5791 5791 5790 5789 5789 5789 5789 5790 5790 5791 5791 5791 5791 5791 5791 5791 5790 5790 5790 5789 5788 5788 5788 5787 5786 5785 5784 5784 5783 5782 5781 5780 5779 5778 5777 5776 5775 5774 5773 5772 5771 5770 5769 5768 5767 5766 5765 5764 5763 5762 5761 5760 5758 5757 5755 5754 5752 5751 5749 5748 5746 5745 5743 5742 5741 5739 5737 5735 5733 5732 5730 5728 5727 5725 5723 5722 5720 5718 5716 5716 5715 5713 5712
5795 5794 5793 5793 5792 5791 5791 5790 5789 5789 5788 5788 5788 5787 5788 5788 5787 5786 5786 5786 5786 5786 5786 5786 5787 5786 5786 5786 5786 5786 5786 5786 5785 5785 5784 5784 5783 5783 5782 5781 5780 5780 5778 5778 5777 5776 5775 5774 5773 5772 5771 5769 5768 5767 5766 5765 5764 5762 5761 5761 5760 5759 5757 5756 5755 5754 5752 5751 5749 5747 5746 5744 5743 5741 5740 5738 5737 5735 5734 5732 5730 5728 5726 5724 5722 5721 5719 5717 5716 5714 5712 5710 5708 5707 5706 5705 5704
5792 5791 5790 5790 5789 5788 5788 5787 5787 5786 5785 5785 5785 5785 5786 5785 5785 5784 5784 5784 5784 5784 5783 5783 5783 5783 5782 5782 5782 5782 5781 5781 5781 5780 5780 5779 5779 5778 5777 5777 5776 5775 5774 5773 5772 5771 5770 5769 5768 5767 5766 5765 5763 5762 5761 5760 5759 5757 5756 5755 5754 5753 5751 5750 5749 5747 5746 5744 5742 5741 5739 5737 5736 5734 5733 5731 5730 5728 5726 5724 5722 5720 5718 5716 5714 5712 5711 5709 5707 5705 5703 5701 5699 5697 5696 5695 5694
5789 5789 5788 5787 5786 5785 5785 5785 5784 5784 5783 5783 5783 5783 5783 5783 5782 5782 5782 5782 5782 5781 5781 5780 5780 5779 5779 5779 5778 5778 5777 5777 5776 5776 5775 5774 5774 5773 5772 5772 5771 5770 5769 5768 5767 5766 5765 5764 5763 5762 5760 5759 5758 5757 5756 5755 5753 5752 5750 5749 5748 5746 5745 5743 5742 5740 5739 5737 5735 5734 5732 5730 5729 5727 5726 5725 5723 5721 5718 5716 5714 5712 5710 5708 5706 5704 5703 5701 5699 5697 5695 5693 5691 5689 5687 5686 5684
5787 5786 5785 5785 5783 5782 5782 5781 5781 5780 5779 5780 5780 5779 5780 5779 5779 5780 5780 5779 5779 5778 5778 5777 5777 5776 5775 5775 5774 5774 5773 5773 5772 5771 5770 5769 5768 5768 5767 5766 5765 5764 5764 5763 5762 5761 5760 5759 5757 5756 5755 5754 5752 5751 5750 5749 5747 5746 5745 5743 5742 5740 5739 5737 5736 5734 5732 5730 5728 5727 5725 5724 5722 5721 5719 5717 5715 5713 5710 5708 5706 5704 5702 5700 5698 5696 5694 5692 5691 5689 5687 5685 5683 5681 5678 5676 5674
5784 5783 5782 5781 5780 5779 5779 5778 5777 5776 5776 5776 5777 5776 5776 5776 5776 5777 5777 5777 5776 5775 5774 5774 5773 5772 5772 5771 5770 5770 5769 5768 5767 5766 5765 5764 5764 5763 5762 5761 5760 5759 5759 5758 5757 5756 5755 5754 5752 5751 5749 5748 5747 5745 5744 5743 5741 5740 5738 5737 5735 5734 5732 5731 5729 5727 5725 5723 5722 5720 5718 5717 5716 5714 5712 5710 5707 5704 5702 5700 5698 5696 5694 5692 5689 5687 5685 5683 5682 5680 5678 5676 5673 5671 5668 5666 5664
5781 5780 5779 5778 5777 5776 5775 5775 5774 5773 5772 5773 5773 5772 5771 5772 5773 5774 5774 5773 5772 5771 5770 5770 5769 5769 5768 5768 5767 5766 5765 5764 5763 5762 5761 5760 5759 5758 5757 5756 5755 5754 5753 5752 5752 5751 5749 5748 5747 5745 5744 5743 5741 5739 5738 5736 5735 5734 5732 5730 5729 5727 5725 5723 5721 5720 5718 5716 5715 5713 5712 5711 5709 5706 5704 5701 5699 5696 5694 5692 5690 5688 5685 5683 5681 5678 5676 5674 5672 5670 5668 5666 5664 5661 5658 5655 5653
5778 5777 5776 5775 5774 5772 5772 5772 5771 5770 5769 5769 5769 5767 5767 5769 5770 5771 5769 5768 5768 5767 5766 5766 5765 5765 5765 5764 5763 5762 5761 5759 5758 5757 5756 5755 5754 5753 5752 5751 5750 5749 5748 5747 5746 5745 5744 5742 5741 5740 5738 5737 5735 5734 5732 5730 5729 5727 5725 5723 5721 5719 5718 5716 5714 5712 5711 5709 5708 5707 5706 5704 5701 5698 5695 5693 5690 5688 5686 5684 5681 5679 5677 5674 5672 5669 5667 5665 5662 5660 5657 5655 5653 5651 5648 5645 5642
5775 5774 5773 5772 5771 5769 5768 5768 5767 5766 5766 5766 5765 5762 5762 5767 5767 5766 5766 5765 5764 5763 5762 5762 5762 5761 5760 5759 5758 5757 5756 5755 5753 5752 5751 5750 5749 5748 5747 5746 5745 5744 5743 5742 5741 5740 5738 5737 5736 5734 5733 5731 5729 5728 5726 5724 5722 5720 5719 5716 5714 5712 5710 5709 5707 5705 5704 5703 5701 5700 5698 5695 5692 5689 5687 5684 5682 5680 5678 5675 5673 5670 5668 5665 5663 5660 5657 5655 5652 5649 5647 5644 5641 5639 5637 5634 5630
5772 5771 5770 5768 5767 5766 5765 5764 5763 5762 5762 5763 5761 5756 5757 5763 5763 5762 5762 5761 5759 5759 5758 5758 5758 5757 5755 5754 5752 5751 5750 5749 5748 5747 5746 5745 5744 5743 5742 5741 5740 5739 5738 5737 5735 5734 5732 5731 5730 5728 5726 5725 5723 5721 5719 5718 5716 5714 5712 5710 5707 5705 5703 5701 5699 5698 5697 5695 5694 5692 5689 5686 5683 5681 5679 5676 5674 5671 5669 5666 5664 5661 5659 5656 5653 5650 5647 5644 5641 5638 5635 5632 5629 5626 5624 5622 5618
5769 5768 5766 5765 5764 5763 5761 5760 5759 5757 5757 5758 5757 5753 5752 5756 5759 5759 5758 5756 5755 5755 5755 5754 5753 5751 5749 5748 5747 5746 5745 5744 5742 5741 5740 5739 5738 5737 5736 5735 5734 5733 5732 5731 5729 5728 5726 5725 5723 5721 5720 5718 5716 5715 5713 5711 5709 5707 5705 5703 5700 5698 5696 5694 5692 5691 5689 5688 5685 5683 5680 5677 5675 5673 5670 5668 5665 5663 5660 5657 5655 5652 5649 5647 5643 5640 5637 5634 5630 5627 5624 5620 5617 5614 5611 5609 5606
5765 5764 5763 5761 5760 5759 5757 5757 5755 5753 5753 5752 5752 5752 5748 5748 5753 5755 5753 5751 5751 5751 5751 5749 5747 5745 5744 5742 5742 5740 5739 5739 5737 5736 5735 5733 5732 5731 5730 5729 5728 5727 5726 5724 5723 5721 5720 5718 5717 5715 5713 5711 5710 5708 5706 5704 5702 5700 5698 5696 5693 5691 5689 5687 5686 5684 5682 5679 5676 5674 5671 5669 5667 5664 5662 5659 5657 5654 5651 5648 5646 5643 5640 5637 5633 5630 5626 5623 5619 5616 5613 5609 5605 5601 5598 5595 5592
5761 5760 5759 5757 5756 5754 5753 5752 5751 5750 5748 5746 5748 5750 5744 5740 5746 5749 5748 5747 5748 5747 5745 5743 5741 5740 5738 5737 5736 5735 5734 5733 5732 5730 5729 5728 5727 5726 5725 5724 5722 5721 5719 5718 5717 5715 5714 5712 5710 5708 5707 5705 5703 5701 5699 5698 5696 5693 5691 5689 5687 5685 5683 5681 5679 5676 5673 5671 5668 5666 5663 5661 5659 5656 5654 5651 5648 5645 5642 5639 5636 5633 5630 5627 5623 5620 5616 5612 5609 5604 5601 5597 5593 5590 5585 5582 5579
5757 5756 5755 5754 5752 5751 5749 5748 5747 5746 5743 5742 5745 5746 5740 5735 5737 5742 5744 5744 5743 5742 5740 5738 5737 5735 5733 5732 5731 5729 5728 5727 5726 5725 5724 5723 5722 5721 5719 5718 5717 5715 5714 5712 5711 5709 5707 5706 5704 5702 5700 5698 5696 5695 5693 5691 5689 5687 5685 5682 5680 5678 5676 5674 5671 5669 5666 5663 5661 5658 5656 5653 5651 5648 5645 5642 5639 5636 5633 5630 5627 5623 5620 5617 5613 5610 5606 5602 5598 5593 5590 5586 5582 5578 5574 5570 5566
5753 5752 5750 5749 5748 5747 5746 5744 5744 5741 5739 5740 5742 5741 5737 5731 5731 5737 5740 5739 5738 5737 5735 5733 5731 5730 5729 5727 5725 5724 5723 5722 5721 5720 5718 5717 5716 5715 5713 5712 5711 5709 5708 5706 5704 5703 5701 5699 5697 5696 5694 5692 5690 5688 5686 5684 5682 5680 5678 5676 5673 5671 5669 5666 5664 5661 5659 5656 5653 5650 5648 5645 5642 5640 5637 5634 5630 5627 5624 5620 5617 5613 5610 5607 5603 5599 5596 5591 5587 5583 5578 5574 5570 5566 5562 5558 5554
5748 5747 5746 5745 5743 5743 5741 5741 5740 5737 5735 5736 5736 5735 5733 5729 5728 5732 5734 5733 5733 5731 5730 5729 5726 5725 5723 5721 5720 5719 5717 5717 5715 5714 5713 5711 5710 5709 5707 5706 5705 5703 5701 5699 5697 5696 5694 5692 5691 5689 5687 5686 5684 5682 5679 5677 5675 5673 5671 5668 5666 5664 5661 5659 5657 5654 5652 5649 5646 5643 5640 5637 5635 5632 5629 5625 5622 5618 5615 5611 5608 5604 5600 5597 5593 5589 5585 5581 5576 5572 5567 5562 5558 5554 5549 5545 5541
5744 5743 5742 5741 5739 5738 5737 5736 5735 5733 5731 5731 5731 5729 5727 5726 5728 5729 5727 5727 5727 5726 5725 5724 5721 5720 5718 5716 5715 5714 5713 5711 5710 5708 5707 5705 5704 5703 5701 5700 5698 5696 5694 5692 5690 5689 5687 5685 5684 5682 5681 5679 5677 5675 5672 5670 5668 5666 5664 5661 5659 5657 5654 5652 5649 5647 5644 5641 5639 5636 5633 5630 5627 5624 5620 5617 5613 5609 5606 5602 5599 5595 5591 5587 5584 5579 5575 5570 5565 5560 5555 5550 5546 5541 5536 5531 5526
5740 5739 5738 5736 5735 5733 5732 5731 5729 5728 5727 5726 5726 5724 5722 5723 5725 5725 5723 5721 5720 5720 5720 5718 5716 5715 5713 5711 5710 5709 5708 5706 5704 5703 5701 5700 5698 5697 5695 5693 5692 5690 5688 5686 5684 5682 5680 5679 5677 5675 5674 5672 5670 5668 5666 5663 5661 5658 5656 5654 5652 5650 5647 5645 5642 5640 5637 5634 5631 5628 5625 5622 5618 5615 5611 5608 5604 5600 5596 5593 5589 5586 5581 5577 5574 5569 5564 5559 5554 5548 5543 5538 5534 5529 5523 5517 5512
5735 5734 5733 5732 5731 5729 5726 5725 5723 5722 5721 5721 5720 5718 5718 5719 5719 5719 5718 5716 5715 5714 5713 5711 5710 5710 5708 5707 5705 5703 5702 5700 5698 5697 5695 5694 5692 5691 5689 5687 5685 5683 5681 5679 5677 5676 5674 5672 5670 5669 5667 5665 5663 5661 5659 5656 5654 5652 5649 5647 5645 5643 5640 5638 5635 5632 5629 5626 5623 5620 5617 5614 5610 5606 5603 5599 5595 5591 5587 5583 5579 5575 5571 5567 5562 5558 5553 5548 5542 5536 5531 5526 5521 5516 5510 5504 5498
5730 5730 5728 5727 5726 5724 5721 5719 5718 5716 5714 5714 5714 5713 5714 5714 5713 5713 5711 5710 5709 5707 5706 5705 5704 5703 5702 5701 5699 5697 5695 5694 5692 5691 5689 5688 5686 5684 5682 5680 5679 5677 5674 5673 5671 5669 5667 5665 5664 5662 5660 5658 5656 5654 5652 5650 5648 5645 5643 5640 5638 5636 5633 5631 5628 5625 5621 5618 5615 5611 5608 5605 5601 5597 5594 5590 5586 5582 5578 5574 5570 5565 5561 5556 5552 5547 5542 5536 5530 5524 5518 5512 5507 5502 5496 5489 5482
5725 5725 5723 5722 5721 5718 5715 5713 5713 5711 5707 5707 5708 5707 5708 5708 5708 5708 5706 5703 5702 5700 5699 5699 5697 5697 5696 5694 5693 5691 5689 5688 5686 5684 5683 5681 5679 5678 5676 5674 5672 5670 5668 5667 5665 5663 5661 5659 5657 5655 5653 5651 5649 5648 5645 5643 5641 5638 5636 5633 5630 5628 5625 5623 5620 5616 5613 5610 5606 5603 5600 5596 5593 5589 5585 5581 5576 5572 5568 5564 5560 5555 5550 5546 5541 5536 5530 5524 5517 5511 5505 5499 5493 5488 5480 5473 5467
5721 5719 5718 5716 5714 5712 5710 5708 5707 5705 5701 5701 5703 5702 5702 5701 5701 5702 5701 5697 5696 5693 5692 5692 5691 5691 5689 5688 5687 5684 5682 5680 5679 5678 5676 5674 5672 5670 5669 5667 5665 5664 5662 5660 5658 5656 5655 5653 5651 5649 5647 5645 5642 5640 5638 5636 5634 5631 5629 5626 5623 5621 5618 5615 5612 5608 5605 5602 5598 5595 5591 5587 5584 5580 5576 5572 5567 5563 5559 5554 5550 5545 5540 5534 5530 5524 5518 5511 5504 5497 5491 5485 5479 5473 5466 5458 5452
5715 5714 5712 5711 5708 5707 5706 5703 5701 5700 5695 5694 5696 5696 5696 5696 5695 5695 5693 5691 5690 5688 5686 5685 5685 5684 5683 5681 5680 5678 5676 5674 5672 5671 5668 5666 5665 5664 5662 5660 5659 5657 5655 5654 5652 5650 5648 5646 5644 5642 5640 5638 5636 5633 5631 5629 5627 5624 5621 5619 5616 5613 5610 5607 5604 5600 5597 5594 5590 5586 5582 5578 5575 5570 5566 5562 5558 5553 5549 5544 5539 5534 5528 5522 5517 5512 5505 5498 5490 5483 5477 5471 5465 5459 5452 5445 5439
5709 5708 5707 5705 5703 5701 5700 5698 5696 5694 5690 5688 5688 5690 5691 5691 5690 5688 5685 5685 5684 5681 5679 5679 5678 5677 5675 5673 5672 5671 5669 5667 5665 5664 5661 5659 5658 5657 5655 5653 5652 5650 5648 5647 5645 5643 5641 5639 5637 5635 5633 5631 5629 5626 5624 5621 5619 5617 5614 5611 5609 5606 5603 5599 5596 5593 5589 5585 5582 5578 5573 5569 5565 5561 5557 5552 5548 5543 5538 5533 5527 5521 5515 5510 5504 5498 5492 5485 5477 5470 5464 5457 5452 5445 5439 5433 5427
5703 5703 5701 5700 5698 5695 5692 5691 5690 5688 5685 5683 5681 5682 5686 5685 5682 5681 5678 5677 5677 5673 5672 5671 5669 5668 5667 5666 5665 5663 5661 5660 5658 5656 5654 5652 5651 5649 5648 5646 5645 5643 5641 5640 5638 5636 5634 5632 5630 5628 5626 5624 5621 5619 5616 5614 5612 5609 5606 5604 5601 5598 5595 5591 5588 5584 5581 5577 5573 5569 5565 5560 5556 5551 5546 5542 5536 5531 5526 5520 5515 5509 5503 5498 5492 5486 5479 5473 5465 5457 5451 5444 5439 5433 5426 5422 5417
5698 5697 5696 5694 5691 5689 5685 5683 5684 5682 5679 5678 5673 5672 5680 5680 5675 5674 5671 5669 5669 5666 5663 5663 5661 5660 5660 5659 5657 5655 5653 5652 5651 5649 5647 5645 5644 5642 5641 5639 5637 5636 5634 5633 5631 5629 5627 5625 5623 5621 5619 5617 5614 5612 5609 5607 5604 5602 5599 5596 5593 5590 5587 5583 5579 5576 5572 5567 5563 5559 5555 5550 5545 5540 5535 5530 5525 5519 5514 5509 5503 5498 5492 5486 5480 5474 5467 5461 5453 5445 5438 5432 5427 5421 5416 5412 5409